SL-8 DEB, 1617

Orbit data source: Space-Track

SL-8 DEB, 1617 is space debris in LEO originally from a launch on Sat, 18 Sep 1965 UTC launched from the Tyuratam Missile And Space Complex (TTMTR). Debris objects in space refer to the collection of defunct objects orbiting the Earth. Examples of debris include non-operational satellites, rocket bodies, and fragments generated from explosions, collisions, or faulty payload assembly.

Loading next visibility...
SL-8 DEB details
Identifier
1617, 1965-073J
Orbit
LEO
Last TLE update20 hours ago
Origin
Flag of CISRVSN (CIS)
ManufacturerUnknown
MissionSpacecraft
Bus & MotorUnknown
MassUnknown
Launch date (UTC)
1965-09-18 (59 years ago)
Launch vehicleUnknown
Launch site
Tyuratam Missile And Space Complex (TTMTR)
Object type
Payload
Rocket body
Debris
Shape & HBRUnknown
Radar Cross SectionMedium (>0.1 m² and <1 m²)

Expand to show TLE details & history

TLE from 20 hours ago
0 SL-8 DEB
1 01617U 65073J   25043.84555137 -.00000208  00000-0 -85241-3 0  9993
2 01617  56.1285 267.4485 0231948  32.5143  63.1816 12.34594937670000
Epoch: 2025-02-12T20:17Z
Definitive object data (Epoch: 2025-02-12T20:17:35.638Z)
Latitude55.41685°
Longitude-75.74168°
Altitude1,457.777 km
Speed7.175 km/s
True Right ascension00h 47m 08s
True Declination55° 16' 13"
Sunlit
Object was in daylight at TLE epoch
Visualization TLE readout
Latitude-54.60886°
Longitude107.58621°
Altitude1,614.672 km
Speed7.034 km/s
Apparent Right ascension10h 04m 27s
Apparent Declination-56° 22' 11"
Sunlit
Object is in daylight
Visualization observer readout
Local Sidereal Time19:19:59
Azimuth224.479° SW
Elevation-58.681°
Doppler factor1
Orbital elements
Apogee altitude1,712.828 km
Perigee altitude1,346 km
Semi-major axis7,907.551 km
Eccentricity0.0231948
Inclination56.1285°
RAAN267.4485°
Arg. of periapsis32.5143°
True anomaly65.58436°
Mean anomaly63.1816°
Eccentric anomaly64.3799°
Mean motion3.0866 °/min
BSTAR-0.00085241
Orbital period116.63 mins
Loading maneuver chart data...
Loading historical data...
Loading historical data...
Loading historical data...
Loading historical data...
Loading historical data...
Loading historical data...
Loading historical data...

SL-8 DEB Visibility forecast

Observer location: undefined°, undefined

Span
Click to sort rows by Start time (UTC) header in descending order
Start Az.
Max El. time (UTC)
Max El. Az.
Max El.
End time (UTC)
End Az.
16 mins2025-02-13 17:17:35.355Z224.844° SW2025-02-13 17:25:35.355Z330.22° NNW44.954°2025-02-13 17:33:35.355Z45.085° ENE
13 mins2025-02-13 19:22:35.355Z282.932° WNW2025-02-13 19:28:35.355Z341.569° N29.211°2025-02-13 19:35:35.355Z40.474° NE
12 mins2025-02-13 21:27:35.355Z320.341° NNW2025-02-13 21:32:35.355Z4.333° NNE25.088°2025-02-13 21:39:35.355Z61.17° ENE
16 mins2025-02-13 23:29:35.355Z321.697° NNW2025-02-13 23:36:35.355Z28.193° NE38.392°2025-02-13 23:45:35.355Z108.958° ESE
16 mins2025-02-14 01:31:35.355Z304.717° NW2025-02-14 01:38:35.355Z241.588° WSW38.89°2025-02-14 01:47:35.355Z161.98° S
6 mins2025-02-14 14:40:35.355Z133.698° SE2025-02-14 14:43:35.355Z110.259° ESE13.933°2025-02-14 14:46:35.355Z87.513° E
8 mins2025-02-14 16:36:35.355Z211.331° SW2025-02-14 16:43:35.355Z135.357° SSE43.545°2025-02-14 16:44:35.355Z89.295° E
|